User: anonymous   Login
Location: Unspecified
(0.0000°N, 0.0000°E)
Time: 04:36:57
(UTC+00:00)
Language:

GSAT 7 - Orbit

View from above orbital plane
View from above orbital plane
View from above satellite
View from above satellite

Ground track
Ground track

The orbit data is extracted from the following two-line orbital elements,

1 39234U 13044B   15107.02341948 -.00000100  00000-0  00000+0 0  9999
2 39234 000.0956 091.2116 0007816 193.8763 002.1505 01.00271540  5998
Epoch (UTC): 17 April 2015 00:33:43
Eccentricity: 0.0007816
inclination: 0.0956°
perigee height: 35753 km
apogee height: 35819 km
right ascension of ascending node: 91.2116°
argument of perigee: 193.8763°
revolutions per day: 1.00271540
mean anomaly at epoch: 2.1505°
orbit number at epoch: 599

The dashed part of the orbit path shows where the satellite is in the earth's shadow,  

DLR